car 板


LINE

看板 car  RSS
https://speed.ettoday.net/news/2968389 台灣國產「改款HONDA HR-V」車型售價曝光!頂規突破100萬 記者徐煜展/綜合報導 來勢洶洶的改款HONDA HR-V,本次台灣改款重點為首度新增的全新油電動力,而台灣消費者 關注的售價資訊,已經在財團法人保險事業發展中心搶先流出,其中頂規的油電車型來到10 1.9萬。 財團法人保險事業發展中心並非實際上市價格,最終仍以台灣本田原廠公布為主,不過仍具 有一定的價格帶範圍參考。保發中心流出改款新HONDA HR-V車型與售價,首先仍有過去的1. 5升自然進氣汽油款,售價為84.9萬。 改款重點的1.5升e:HEV油電共有2款車型曝光,除了有一般的96.9萬車型,將作為頂規的Pre stige車型售價來到101.9萬。作為油電HR-V最直接對手的TOYOA Corolla Cross,1.8升油電 Corolla Cross開價83.9~98.9萬。 台灣預計6月3日亮相的改款HONDA HR-V,首度採用1.5升e:HEV油電,市區油耗達26.18km/L、 高速22.11km/L、平均油耗為23.5km/L,而平均油耗成績與1.8升油電的TOYOTA Corolla Cro ss不相上下。 油電的價格似乎比版友之前預估的高不少啊 要價百萬的HR-V…台本有你的 --



※ 發信站: 批踢踢實業坊(ptt.cc), 來自: 101.10.236.39 (臺灣)
※ 文章網址: https://webptt.com/m.aspx?n=bbs/car/M.1748418798.A.76F.html
1F:推 allyourshit: 台苯佛心開價 低於140W都是本田粉的勝利 05/28 15:54
2F:推 gg8n8nd34ss: 頂規有比CC頂規配備好嗎 差不多的話大概也是沒搞頭 05/28 15:55
3F:推 EagleShadow: 競爭力那麼差,CC連加個後地圖袋都懶了 05/28 15:56
4F:推 hiyeon: 真好奇喜歡本田的人在想啥 要安全沒安全 要價格沒價格 能 05/28 15:57
5F:→ hiyeon: 吹的只有客貨認證的空間 05/28 15:57
6F:推 freetempo: 後面防撞樑裝回來了嗎 05/28 15:58
7F:→ bbogod: 盤子魂該上囉 05/28 15:58
8F:推 BrandonMai: 沒事沒事 多了民主價值而已 05/28 15:59
9F:推 allyourshit: 要後防撞樑請再加五萬 05/28 16:00
10F:推 charmingpink: 破百hrv 05/28 16:01
11F:→ allyourshit: 84.9萬應該是接單生產 候車期3-6個月吧 05/28 16:02
12F:推 san06182003: 百萬yc 05/28 16:02
13F:推 jackie0712: 這次要折多少呢 先折個10先 05/28 16:03
14F:推 omanorboyo: 可以下去了 05/28 16:03
15F:推 kobe7610: 台苯真的把台灣人當盤子耶 05/28 16:04
16F:推 crazypitch: 本田第一年都很硬 應該沒折10 12月跨年度看看能不能 05/28 16:05
17F:推 n7593111: 101.9萬會有含盲點環景嗎?後防撞鋼樑和全速域車維會補 05/28 16:05
18F:→ n7593111: 上嗎?敬請期待 05/28 16:05
19F:推 cliff880528: 有100萬幹嘛不買CC正油電== 05/28 16:07
20F:→ geniusw: 宗教跟買車不一樣啊 你們在爭啥 05/28 16:07
21F:噓 acesslai: 哪裡來的彎道超車,哪裡來的改變購車習慣 05/28 16:08
22F:→ ckfh101: 折價20萬才有競爭力 05/28 16:08
23F:推 a187: CC: 看來拔太少... 05/28 16:09
24F:推 PCC2003: 買到撞到 05/28 16:11
25F:推 kukuo413117: CC:路邊一條 05/28 16:12
26F:噓 SaberMyWifi: 不想經營台灣市場就滾回日本 05/28 16:12
27F:推 alcloth: 原來前幾天流出的價格是舊換新再-5萬的價格 05/28 16:14
28F:→ alcloth: 我聽到的油電兩款是89.9、95.9 05/28 16:14
29F:→ alcloth: 所以正式銷售的定價會再各減1萬 05/28 16:15
30F:→ jarrodqq896: 哈哈哈哈哈 05/28 16:16
31F:推 alcloth: 這樣油電入門加上折扣辦到好就是90 05/28 16:16
32F:推 windblood: 本田粉被台苯看沒有 不賺白不賺 05/28 16:17
33F:推 flymomo2001: 哈哈哈,果然割割割 05/28 16:18
34F:推 hsiung9: 才101萬 看不起本田魂嗎 05/28 16:20
35F:推 eric20: 100買國產CUV? 05/28 16:21
36F:推 mercedeces: 這車後座跟fit一樣是潰縮區 05/28 16:23
37F:推 n7593111: 為什麼要花101.9萬買一台四星撞測車? 05/28 16:23
38F:推 beoneg: 才破百是不是瞧不起本田魂? 05/28 16:26
39F:推 lightmei: 140的喜美原來是在幫後續e:hev鋪路阿,我真以為成本有 05/28 16:33
40F:→ lightmei: 多高 05/28 16:33
41F:→ dslite: 配備比cc好的話應該還可以? 05/28 16:33
42F:推 omanorboyo: 車頭有夠醜 被CC壓在地上打 05/28 16:34
43F:→ lightmei: 配備應該不會多好,本田最厲害的就是拔一堆配備起來當 05/28 16:34
44F:→ lightmei: 加購的 05/28 16:34
45F:推 kkrichard: CC表示:幹,早知道再開高一點 05/28 16:37
46F:推 LoveLena5566: 不然要買牛頭? 05/28 16:39
47F:→ terry955048: 都打不贏CC了還賣比人貴,台苯很猛 05/28 16:40
48F:推 wiki0029: 台苯是不是看台灣本田魂沒有,沒超過150 05/28 16:41
49F:推 kimiso: 本田都敢開這價格CC完全被看不起了 05/28 16:44
50F:推 pigforget: Show味十足嗎? 05/28 16:45
51F:推 davidtoldyou: 可參考HRV油車,台苯眼中所謂的頂規盲點環景照樣拔 05/28 16:46
52F:推 OldWang911: 不然要買豐田火燒車嗎? 05/28 16:47
53F:推 grizzly: Civic cp值突然變高了 05/28 16:48
54F:推 romeo84: 不意外。不要買就好 05/28 16:49
55F:推 davidtoldyou: 捏20就有進口喜美,是我也選civic,帥多了 05/28 16:50
56F:推 snailking: CC準備下神壇了,不要不信 05/28 16:51
57F:推 bba75149: 夯打從不讓台灣人失望 果然開出鳥價格 05/28 16:52
58F:推 Boss1983: 有vtec啊 05/28 16:53
59F:→ snailking: HR-V就是一台連豐田章男都會開的車,國瑞CC到底算老幾 05/28 16:54
60F:→ dododododora: 和泰笑到內褲破掉 05/28 16:55
61F:推 gene51604: 國產的還要破百喔? 05/28 16:55
62F:推 timewaits: 寧願火燒車穿雨衣都不要移動鐵棺材 05/28 16:55
63F:→ timewaits: 台本只有CRV6跟Civic可以買 05/28 16:56
64F:推 keineAhnung: 百萬鋁鏽連 05/28 16:56
65F:推 eric19850629: 國產(X 台組(O 05/28 16:58
66F:→ timewaits: (本粉:正在蒐集火燒車圖片) 05/28 16:59
67F:推 Semaj543: 油電入門96.9,我只能說加油 05/28 16:59
68F:推 Alun021: 有100萬買別的車啊,幹嘛買CC HRV…. 05/28 17:00
69F:噓 l90289312: 油電96萬,這是要被變漿糊吧 05/28 17:00
70F:推 ymx3xc: 這價格有含盲點嗎? 05/28 17:01
71F:推 Hotsheep: 百萬…留點錢給本粉買黃油好嗎 05/28 17:05
72F:噓 neil0611: 銹time? 05/28 17:06
73F:推 cy7872322: 4星show車 05/28 17:07
74F:噓 johnson20524: 本田魂飛魄散 05/28 17:13
75F:推 kenny771011: 和泰贏麻了 05/28 17:17
76F:推 maplefoxs: 不意外,原本就要80幾了 05/28 17:21
77F:→ lancelot123: 保發中心不見得準,看看那個Passat,跟上市售價差有 05/28 17:21
78F:→ lancelot123: 夠多 05/28 17:21
79F:推 ckfh101: 木法沙出來 CC就在挖鼻孔了 HRV HEV這個價格 CC挖到流鼻 05/28 17:21
80F:→ ckfh101: 血 05/28 17:22
81F:推 supermni: 最終應該會落在93.9~99.9萬略低百萬CC(影音特仕 05/28 17:24
82F:噓 cor1os: 銹 真銹 05/28 17:24
83F:推 bing6715: 悲慘內裝 05/28 17:24
84F:推 weijinsusu: 100萬就買得到本田魂超值 05/28 17:25
85F:推 frogqoo: 苔苯去賣給鬼吧…..破百 05/28 17:26
86F:推 horb: 你不買。他不買。明天折十萬。台本還是要抵制一下才會回歸正 05/28 17:29
87F:→ horb: 常價 05/28 17:29
88F:推 jerryyangyyx: 差不多價格的全時電驅5星進口KICKS e-power不香嗎? 05/28 17:30
89F:→ horb: 現在CRV折蠻多的 05/28 17:30
90F:推 superpie007: 有後防撞鋼梁套件嗎 05/28 17:32
91F:→ pzztt: 內含本田魂價值 價格高一點錯了嗎 05/28 17:37
92F:推 yuen0000: 油電的還會鏽嗎 05/28 17:38
93F:推 iceking: 猜正式售價降2萬 99.9壓百萬內 05/28 17:41
94F:推 can05025: 台苯真的佛心,快謝主榮恩~~ 05/28 17:43
95F:推 smallkop: 北爛,cc油電一統江湖 05/28 17:45
96F:→ smallkop: 本田翔救我 05/28 17:46
97F:推 orange7986: 之前一篇文大家還在幻想頂規95 QQ 05/28 17:49
98F:推 ru04hj4: 好啦 不嘴了本田No.1 05/28 17:50
99F:→ ALDNOAH5566: CC屌打 05/28 17:51
100F:噓 triff: 看了真難過,買台本都被酸,我真的愛本田的車 05/28 17:58
101F:→ triff: City開9年了,妥善率超好,保養也簡單,上班買菜生活好車, 05/28 17:59
102F:→ triff: 台本啊..不要這樣漏氣啦 05/28 17:59
103F:推 david7112123: 台本不意外 05/28 17:59
104F:推 ga654154: 生鏽笨田魂開始衝囉 05/28 18:02
105F:推 allyourshit: 台灣就流放之地 台苯那些都是職場失敗者才會來的 05/28 18:03
106F:噓 swatsh: 哈哈哈 不是有人說要一桶江湖了 05/28 18:03
107F:推 pttsuck5566: 買到撞到 05/28 18:06
108F:推 g0428168: 一桶糨糊 05/28 18:10
109F:推 aa01081008tw: CC油電80萬就有了...差了快20萬..多花20萬買信仰喔 05/28 18:10
110F:推 y7moremore: 跟cc油電尊爵比 排氣量-3萬 測撞-3萬 銹銹-4萬 這台該 05/28 18:15
111F:→ y7moremore: 賣80萬以下 05/28 18:15
112F:推 OldWang911: @jerryy 現煮時不可能買kicks,國外早就大改款了,要 05/28 18:17
113F:→ OldWang911: 也是買大改款 05/28 18:17
114F:推 falconer: 之前好幾家車媒不是說會在百萬以內 05/28 18:18
115F:推 seamask: 本田折扣過後還有90?90貴現在cc也要價十萬吧? 05/28 18:20
116F:推 WiLLSTW: 等下又有人要來貼CC燒頭燈了 05/28 18:21
117F:噓 gameboy163: 百萬買這個還寧願買N7 05/28 18:22
118F:推 morrishh: 都百萬了 應該不會生鏽了吧? 05/28 18:26
119F:推 mictaner0972: 本田玩法 先開高價割第一波韭菜 再大折價 讓人以為 05/28 18:28
120F:→ mictaner0972: 賺到 05/28 18:28
121F:推 hank9527: 本粉911好生氣 05/28 18:30
122F:推 Statham: 可惜以前喜美K8黃金年代 現在只剩情懷跟鏽鏽 05/28 18:33
123F:推 Merucho: 跟MG比吧 拿Cc來比有點殺雞焉用牛刀 05/28 18:34
124F:推 OldWang911: 9527還在狂喝CC的漏水吧 05/28 18:38
125F:推 s88001238: 佛盤 05/28 18:41
126F:推 JER2725: 國產百萬cuv 05/28 18:48
127F:推 hg32658: 頂到底的cc也沒破百 這些人到底哪裡來的自信訂這種價格 05/28 18:55
128F:推 finasoul: 有啦 GR cc牌價98.9+5選配有破百 但空車93 05/28 18:56
129F:推 foxbrush: 本田台灣定價策略一直走品牌地位高Toyota一等,本質溢價 05/28 19:00
130F:→ laechan: 這價錢難怪我選CC 05/28 19:03
131F:→ apov: 防撞鋼樑照偷 一樣賣破百 05/28 19:03
132F:推 MilkTeaMan: cc加本田logo就是定價 05/28 19:04
133F:推 atana: 本田的靈壓都快消失了 05/28 19:11
134F:→ RiverMan1: 我就看不懂台本這樣垃圾,還一堆死忠 05/28 19:18
135F:推 curry0402: 高於90根本沒勝算 買到撞到 05/28 19:23
136F:推 indoman: 年底大概折12左右跟fit一樣 05/28 19:27
137F:→ Feriohan: Fit油電之前看過70的菜單,供參 05/28 19:27
138F:推 Civil: 0 05/28 19:38
139F:推 kai0829: CC: 哈欠 05/28 19:38
140F:推 wheat1130: 優銹 05/28 19:41
141F:→ wheat1130: 內鐵這次有裝了吧? 05/28 19:42
142F:推 foxvera: 差不多...之前KICKS也是這個壕價 05/28 19:44
143F:推 wjes30325: 買CC油電再買一台進口本田小狼 這樣依然有本田魂惹 05/28 19:45
144F:→ foxvera: 不過還是一樣,"賣得差的話",他就會降價 05/28 19:46
145F:推 finasoul: 之前汽油滯銷不就都折10起跳 05/28 20:04
146F:推 sakaya00: 內線龜車款 油電能救救它嗎 05/28 20:24
147F:推 godallan: 往好處想 台本其實會看輿論動價格 HRV有他一定的市場 就 05/28 20:24
148F:→ godallan: 是不開cc那群 05/28 20:24
149F:推 AirLee: 買到撞到 快點去買 05/28 20:29
150F:推 bruceiq: 感覺是本田會做的事,看Fit就懂了 05/28 20:31
151F:推 ur83friend: ㄒㄧㄡˋ 05/28 20:36
152F:推 bravery1117: 這價格,買CC比較好。 05/28 20:53
153F:噓 a1684114: 這麼貴 買回來發現什麼都拔 外加生鏽 05/28 20:54
154F:推 E6300: CC油電尊爵+HONDA CL-STREET=剛好這台的價格 05/28 21:04
155F:推 OldWang911: https://youtu.be/GD-h_9piCiE?si=covt4Hf4rZvXaF6g 05/28 21:23
156F:→ OldWang911: 國外試駕,有興趣的人可以看看(英語) 05/28 21:24
157F:推 OldWang911: https://youtu.be/yfjCmTdKUdc?si=F4meIYGx4-c4iTbW 05/28 21:26
158F:→ OldWang911: 靜態賞車 05/28 21:26
159F:推 AustinRivers: cc笑翻 05/28 21:39
160F:推 metroid0104: 這幾年沒台苯這樣坑苯醚,本田獲利應該更難看 05/28 21:48
161F:推 Mbappe10: 坐等折價20 05/28 21:50
162F:推 silence569: 盤田總是不會讓人失望 05/28 21:53
163F:→ SCYAzure: 差不多吧,比CC好開幹嘛賣的比CC便宜XD 05/28 22:01
164F:推 love9: 賣不掉加價賣 聰明 05/28 22:06
165F:推 lovelock110: 買家佛 05/28 22:11
166F:推 line20306: 真的被當北七 05/28 22:20
167F:推 zx2751206: 價格出來,板上幾位本田特鐵粉該下訂支持囉,不要在那 05/28 22:23
168F:→ zx2751206: 哈拉一大堆,結果自己還不買~啃^_^ 05/28 22:23
169F:推 celelor: 猛 這車頂多值90萬 超過100是什麼意思 05/28 22:24
170F:推 mtc5566: 笑死 911到底是本質迷還是本黑反串阿 05/28 22:27
171F:推 kofpp: 開那種價格,真的是買來給人笑的 05/28 22:34
172F:噓 a894392000: 台本真的是有夠貪 05/28 22:39
173F:推 OldWang911: 路過,這裡好熱鬧呢~ 05/28 22:43
174F:噓 jazzprozac: 先等正式公布再說 不過我是不期待台本的定價策略啦 05/28 22:43
175F:推 gino321: 台笨的售價 沒讓我失望過 05/28 23:13
176F:推 okla0327: 本田屏東的產能本來就有限,想賣多大量都很難吧? 05/28 23:16
177F:推 godallan: CC頂有破百 但本田也不是原價賣你 05/28 23:27
178F:推 yoyoboy1: 保發中心的價格通常都會比較高啦,看上個月的Passat 正 05/28 23:31
179F:→ yoyoboy1: 式售價比保發中心低了30幾萬。 所以價格看看就好。抹布0 05/28 23:31
180F:→ yoyoboy1: 1都有人透漏了。頂級款是95.9萬 05/28 23:32
181F:推 kentin: It’s 鏽 time 05/28 23:42
182F:噓 r30385: 哈哈哈哈哈 https://i.imgur.com/mRq0J2T.jpg 05/28 23:48
183F:噓 h921440: 日本同款車賣60萬台幣,台灣國產要破百萬? 05/29 00:48
184F:推 h921440: 屏東廠勞工薪水、加班費 > 日本勞工 05/29 00:56
185F:推 OldWang911: 看樓上自問自答還蠻妙的 haha 05/29 01:05
186F:推 EPIRB406: 100萬可以配備給足就好 05/29 01:21
187F:噓 astrofluket6: CC表示 05/29 01:24
188F:推 SamWhite: 鏽time 05/29 01:42
189F:推 yummy5309: 這價格還算國產車嗎? 05/29 02:13
190F:推 OldWang911: 都有人買到百萬CC了,國產怎麼不可能 05/29 02:20
191F:推 interact: CC笑到內傷 05/29 03:41
192F:推 n123456n: https://i.imgur.com/hL6HYa9.jpeg 05/29 05:28
193F:→ cosmos506: 太便宜我,可是不買 05/29 06:06
194F:推 jansan: 會不會生鏽? 05/29 06:42
195F:推 iorittn: 有100怎麼不買RAV4? 05/29 07:16
196F:→ Betterdays: 笑死 下去啦 05/29 07:40
197F:→ soleaching: HRV跟fit賣點就是那個椅子變化 05/29 07:44
198F:噓 Xxxxxin: 大一點的油電fit,後座一樣不能載人嗎? 05/29 07:45
199F:→ asdf70044: 反正本來就賣不多 價格高點賣死忠H魂 加減賺 05/29 08:18
200F:推 xjapan329: HR-V晉身為百萬豪車品牌 05/29 08:42
201F:推 oldling: 不如買n7 05/29 08:51
202F:推 ttt1387: 80萬的CC油電尊爵、真香 05/29 08:57
203F:→ a9564208: 不意外 05/29 08:58
204F:推 nonono119: 正式價格都還沒公布大家罵的跟真的一樣 05/29 09:02
205F:→ a9564208: 買CC+CL,還可以去參加台本車聚 05/29 09:02
206F:推 joe48246: 裕隆透露年底會發表大改款kicks ep,不急的話可以等到 05/29 09:10
207F:→ joe48246: 時候與hrv比較價格,且據說3代ep油耗和成本都下降,有 05/29 09:11
208F:→ joe48246: 望壓低車價 05/29 09:12
209F:推 cosmos506: 我ok 你先買 05/29 09:22
210F:推 csgod1325: 難怪以前不敢進油電 05/29 09:43
211F:推 jerrylee666: 百萬銹銹車+1 05/29 09:56
212F:→ SCYAzure: 我很懷疑台灣年底會進新款kicks EP,理論上會慢國外一 05/29 10:11
213F:→ SCYAzure: 年,現在國外新版kicks EP都還沒上市啊 05/29 10:11
214F:推 allenz78: 本田魂燃燒 05/29 10:18
215F:推 Dick2: 鏽到不敢買 05/29 11:18
216F:推 Omgggyy778: 魂力滿點、價格滿點 05/29 11:50
217F:推 stockton19: 期待開箱後保桿.... 05/29 12:08
218F:推 Celtic8879: cc又贏 05/29 12:13
219F:推 q840813: 進口車都要0關稅了 這台還在賣100萬 好猛 05/29 12:46
220F:噓 doomerptt: 抬畚就是拒買啦 05/29 13:54
221F:→ tirio312: 這價格…. 05/29 14:07
222F:推 OldWang911: 我只想知道大改款的kicks方向盤到底有沒有補上四向調 05/29 14:41
223F:→ OldWang911: 整了 05/29 14:41
224F:→ OldWang911: 國內現行款kick方向盤只有兩向調整,看到傻眼 05/29 14:42
225F:推 preisner: 本田不ey 05/29 16:06
226F:推 camry10527: 開在hrv後面看有夠醜 05/29 16:43
227F:→ z5876268: 破百的價格已經是確定了嗎,後面說不定會再降一點,這個 05/29 16:46
228F:→ z5876268: 價格真的是很頂規,不知道內裝跟配備有沒有這麼頂 05/29 16:47
229F:推 wujunda: 哈哈哈 05/29 18:27
230F:推 jerryyangyyx: 回樓上的,e-POWER的kicks方向盤是四向哦 05/29 18:47
231F:推 tw88: 推 國產Macan 05/29 20:14
232F:→ kyo33: 零關稅特斯拉都快進來了本田還敢賣這價喔 笑死人 05/30 12:10
233F:推 KSUGOD: showtime 05/30 12:52
234F:推 shengkao: 前幾天才在一篇文下推說不用期待本田會開出什麼好價格, 05/30 20:54
235F:→ shengkao: 果然... 05/30 20:54
236F:→ lauoosai: 死忠本田粉覺得便宜 05/31 22:16
237F:推 wheat1130: 準車主:黃油準備好了。 06/02 00:57
238F:推 Feriohan: 5月銷售cc 3,000台,hrv 130台,這是要比什麼 XDD 06/02 17:51
239F:噓 dodoro1: 貴 06/08 15:44







like.gif 您可能會有興趣的文章
icon.png[問題/行為] 貓晚上進房間會不會有憋尿問題
icon.pngRe: [閒聊] 選了錯誤的女孩成為魔法少女 XDDDDDDDDDD
icon.png[正妹] 瑞典 一張
icon.png[心得] EMS高領長版毛衣.墨小樓MC1002
icon.png[分享] 丹龍隔熱紙GE55+33+22
icon.png[問題] 清洗洗衣機
icon.png[尋物] 窗台下的空間
icon.png[閒聊] 双極の女神1 木魔爵
icon.png[售車] 新竹 1997 march 1297cc 白色 四門
icon.png[討論] 能從照片感受到攝影者心情嗎
icon.png[狂賀] 賀賀賀賀 賀!島村卯月!總選舉NO.1
icon.png[難過] 羨慕白皮膚的女生
icon.png閱讀文章
icon.png[黑特]
icon.png[問題] SBK S1安裝於安全帽位置
icon.png[分享] 舊woo100絕版開箱!!
icon.pngRe: [無言] 關於小包衛生紙
icon.png[開箱] E5-2683V3 RX480Strix 快睿C1 簡單測試
icon.png[心得] 蒼の海賊龍 地獄 執行者16PT
icon.png[售車] 1999年Virage iO 1.8EXi
icon.png[心得] 挑戰33 LV10 獅子座pt solo
icon.png[閒聊] 手把手教你不被桶之新手主購教學
icon.png[分享] Civic Type R 量產版官方照無預警流出
icon.png[售車] Golf 4 2.0 銀色 自排
icon.png[出售] Graco提籃汽座(有底座)2000元誠可議
icon.png[問題] 請問補牙材質掉了還能再補嗎?(台中半年內
icon.png[問題] 44th 單曲 生寫竟然都給重複的啊啊!
icon.png[心得] 華南紅卡/icash 核卡
icon.png[問題] 拔牙矯正這樣正常嗎
icon.png[贈送] 老莫高業 初業 102年版
icon.png[情報] 三大行動支付 本季掀戰火
icon.png[寶寶] 博客來Amos水蠟筆5/1特價五折
icon.pngRe: [心得] 新鮮人一些面試分享
icon.png[心得] 蒼の海賊龍 地獄 麒麟25PT
icon.pngRe: [閒聊] (君の名は。雷慎入) 君名二創漫畫翻譯
icon.pngRe: [閒聊] OGN中場影片:失蹤人口局 (英文字幕)
icon.png[問題] 台灣大哥大4G訊號差
icon.png[出售] [全國]全新千尋侘草LED燈, 水草

請輸入看板名稱,例如:e-shopping站內搜尋

TOP